Location: Unspecified
(0.0000°N, 0.0000°E)
Time: 11:18:55
(UTC+00:00)

Vanguard 3 - Pass Details

Date: 26 November 2019
Orbit: 508 x 3263 km, 33.3° (Epoch: 13 December)

Event Time Altitude Azimuth Distance (km) Brightness Sun altitude
Rises 21:38:48 0° 286° (WNW) 5,520 11.7 -52.2°
Reaches altitude 10° 21:43:46 10° 276° (W) 3,989 10.9 -53.2°
Enters shadow 21:47:38 20° 260° (W) 2,870 10.2 -54.0°
